Regional Weather Roundup
Issued by NWS

Home | Current Version | Previous Version | Graphics & Text | Print | Product List | Glossary On
Versions: 1 2 3 4 5 6 7 8 9 10 11 12 13 14 15 16 17 18 19 20 21 22 23 24 25 26 27 28 29 30 31 32 33 34 35 36 37 38 39 40 41 42 43 44 45 46 47 48 49 50
000
ASUS43 KOAX 020610
RWRNE

WEATHER ROUNDUP FOR NEBRASKA
NATIONAL WEATHER SERVICE OMAHA NE
100 AM CDT SUN AUG 02 2015

NOTES: SATELLITE DATA IS BEING USED TO AUGMENT CLOUD COVER ABOVE
       12000 FEET.
       "FAIR" INDICATES FEW OR NO CLOUDS BELOW 12,000 FEET WITH NO
       SIGNIFICANT WEATHER AND/OR OBSTRUCTIONS TO VISIBILITY.

  * THESE STATIONS DO NOT REPORT WEATHER SUCH AS RAIN...SNOW OR FOG.

NEZ001>004-019>022-054>056-020700-
NEBRASKA PANHANDLE

CITY           SKY/WX    TMP DP  RH WIND       PRES   REMARKS
SCOTTSBLUFF    PTCLDY    71  55  56 SE8       30.03S
6HR MIN TEMP:  65; 6HR MAX TEMP:  85;

ALLIANCE       CLEAR     64  56  75 CALM      30.01F
6HR MIN TEMP:  63; 6HR MAX TEMP:  83;

CHADRON        CLEAR     69  55  60 VRB5      29.96F
6HR MIN TEMP:  67; 6HR MAX TEMP:  92;

KIMBALL        PTCLDY    67  54  62 SE8       30.08F
SIDNEY         MOCLDY    69  55  60 SW12      30.07R
6HR MIN TEMP:  67; 6HR MAX TEMP:  76;

$$

NEZ057>060-069>072-079>082-020700-
SOUTHWEST NEBRASKA

CITY           SKY/WX    TMP DP  RH WIND       PRES   REMARKS
NORTH PLATTE   PTCLDY    64  61  90 CALM      29.97S
6HR MIN TEMP:  63; 6HR MAX TEMP:  78;

IMPERIAL       MOCLDY    73  55  53 SW8       29.98S
6HR MIN TEMP:  72; 6HR MAX TEMP:  89; 6HR PCP: TRACE;

LEXINGTON      MOCLDY    70  64  83 CALM      29.95S
MCCOOK         CLOUDY    75  58  55 S8        29.95F
6HR MIN TEMP:  75; 6HR MAX TEMP:  93;

OGALLALA       CLEAR     67  58  71 W6        29.99R
$$

NEZ005>010-023>029-035>040-094-020700-
NORTH CENTRAL NEBRASKA

CITY           SKY/WX    TMP DP  RH WIND       PRES   REMARKS
AINSWORTH      CLEAR     69  60  75 SW8       29.94S
BROKEN BOW     MOCLDY    66  62  87 N5        29.95S
6HR MIN TEMP:  66; 6HR MAX TEMP:  80;

O`NEILL        CLEAR     69  62  78 S7        29.89F
ORD            PTCLDY    64  63  96 W3        29.92F
6HR MIN TEMP:  64; 6HR MAX TEMP:  80;

THEDFORD       PTCLDY    63  60  90 CALM      29.98S
$$

NEZ041-046>049-061>064-073>077-083>087-020700-
SOUTH CENTRAL NEBRASKA

CITY           SKY/WX    TMP DP  RH WIND       PRES   REMARKS
GRAND ISLAND   PTCLDY    73  68  84 S8        29.92F
6HR MIN TEMP:  72; 6HR MAX TEMP:  79;

AURORA         PTCLDY    73  69  89 S7        29.92S
HASTINGS       CLEAR     73  67  81 S8        29.93F
6HR MIN TEMP:  73; 6HR MAX TEMP:  84;

HEBRON         PTCLDY    74  64  70 S7        29.93S
HOLDREGE       PTCLDY    71  61  70 SW6       29.95S
KEARNEY *      PTCLDY    72  64  78 S7        29.94S
YORK           CLEAR     72  68  88 S7        29.92F
$$

NEZ011>018-030>034-042>045-020700-
NORTHEAST NEBRASKA

CITY           SKY/WX    TMP DP  RH WIND       PRES   REMARKS
NORFOLK        CLEAR     66  64  93 CALM      29.90F
6HR MIN TEMP:  65; 6HR MAX TEMP:  82;

ALBION         MOCLDY    65  62  92 NW3       29.92F
BLAIR          CLEAR     74  69  86 S7        29.91F
COLUMBUS *     CLEAR     64  59  82 CALM      29.90F
FREMONT        CLEAR     75  69  82 SE3       29.90F
TEKAMAH        CLEAR     70  68  93 S6        29.89F
6HR MIN TEMP:  69; 6HR MAX TEMP:  82;

WAYNE          CLEAR     66  64  94 S6        29.90S
$$

NEZ050>053-065>068-078-088>093-020700-
SOUTHEAST NEBRASKA

CITY           SKY/WX    TMP DP  RH WIND       PRES   REMARKS
LINCOLN        CLEAR     72  69  90 S7        29.91F
6HR MIN TEMP:  71; 6HR MAX TEMP:  86;

OMAHA EPPLEY   CLEAR     76  72  87 S8        29.90F
6HR MIN TEMP:  75; 6HR MAX TEMP:  84;

BEATRICE       PTCLDY    75  67  76 S7        29.92F
FALLS CITY     CLEAR     72  63  73 S10       29.94S
6HR MIN TEMP:  70; 6HR MAX TEMP:  87;

NEBRASKA CITY  CLEAR     72  68  88 S10       29.94S
PLATTSMOUTH    CLEAR     73  70  91 SE10      29.92F
$$

NEZ044-045-051>053-067-020700-
OMAHA AREA

CITY           SKY/WX    TMP DP  RH WIND       PRES   REMARKS
OMAHA EPPLEY   CLEAR     76  72  87 S8        29.90F
6HR MIN TEMP:  75; 6HR MAX TEMP:  84;

BLAIR          CLEAR     74  69  86 S7        29.91F
FREMONT        CLEAR     75  69  82 SE3       29.90F
MILLARD        CLEAR     75  72  91 SE5       29.90F
OFFUTT AFB     CLEAR     73  73  99 SE7       29.90F
PLATTSMOUTH    CLEAR     73  70  91 SE10      29.92F
WAHOO          FAIR      70  67  92 SE6       29.90F
$$


USA.gov is the U.S. government's official web portal to all federal, state and local government web resources and services.